Location: Riedlingen
(48.1569°N, 9.4757°E)
Time: 02:56:02
(UTC+02:00)

ISS - Pass Details

Date: 22 May 2021
Orbit: 417 x 422 km, 51.6° (Epoch: 15 June)

Event Time Altitude Azimuth Distance (km) Brightness Sun altitude
Rises 01:20:47 0° 292° (WNW) 2,372 0.3 -21.5°
Reaches altitude 10° 01:22:55 10° 287° (WNW) 1,506 -0.8 -21.5°
Enters shadow 01:24:05 20° 280° (W) 1,053 -1.7 -21.4°
